www.pogodaiklimat.ru

Погода и климат >> Архив погоды >> Япония >> Симидзу


ПОГОДА в Симидзу

  • Прогноз погоды в Симидзу
  • Монитор погоды в Симидзу

АРХИВ ПОГОДЫ в Симидзу

Время (UTC), дата Ветер
(напр.,м/с)
 
Видим.   Явления Облачность Т
(С)
Тd
(С)
f
(%)
Тe
(С)
Тes
(С)
Комфортность P
(гПа)
Po
(гПа)
Тmin
(С)
Tmax
(С)
R
(мм)
R24
(мм)
S
(см)
19 10.06 С 2 20 км н/о +20.4 +15.6 74 +24 +24 комфорт 1004.8 1000.9
20 10.06 С 3 20 км н/о +21.6 +14.8 65 +25 +25 комфорт 1004.9 1001.0
21 10.06 СВ 4 20 км н/о +21.6 +17.6 78 +26 +26 душно 1004.9 1001.0
22 10.06 СВ 2 20 км н/о +22.2 +19.2 83 +28 +28 душно 1005.3 1001.4
23 10.06 В 2 13 км н/о +23.3 +18.8 76 +30 +30 очень
душно
1005.8 1001.9
00 11.06 СВ 2 15 км н/о +23.9 +19.2 75 +29 +29 душно 1005.7 1001.8 +19.9
01 11.06 СВ 2 11 км н/о +24.3 +19.6 75 +30 +30 очень
душно
1005.8 1001.9
02 11.06 В 2 10 км н/о +25.0 +19.8 73 +31 +31 очень
душно
1005.4 1001.6
03 11.06 З 3 19 км н/о +24.0 +19.1 74 +29 +29 душно 1005.8 1001.9
04 11.06 З 4 20 км н/о +23.5 +17.9 71 +28 +28 душно 1005.5 1001.6
05 11.06 З 4 20 км н/о +23.5 +17.3 68 +27 +27 душно 1004.8 1000.9
06 11.06 З 5 14 км н/о +23.8 +17.1 66 +28 +28 душно 1004.7 1000.8
07 11.06 З 6 20 км н/о +23.5 +16.1 63 +27 +27 душно 1004.2 1000.3
08 11.06 З 5 20 км н/о +23.4 +16.5 65 +28 +28 душно 1004.1 1000.2
09 11.06 З 5 20 км н/о +22.8 +15.9 65 +27 +27 душно 1004.4 1000.5
10 11.06 З 4 20 км н/о +22.9 +15.3 62 +27 +27 душно 1004.7 1000.8
11 11.06 СЗ 3 20 км н/о +22.0 +14.4 62 +25 +25 комфорт 1004.9 1001.0
12 11.06 С 2 20 км н/о +20.8 +13.5 63 +24 +24 комфорт 1005.5 1001.6 +26.5
13 11.06 С 3 20 км н/о +20.7 +13.9 65 +24 +24 комфорт 1006.1 1002.2
14 11.06 С 5 20 км н/о +21.8 +13.2 58 +24 +24 комфорт 1006.1 1002.2
15 11.06 С 4 20 км н/о +22.4 +12.9 55 +25 +25 комфорт 1005.8 1001.9
16 11.06 С 4 20 км н/о +22.1 +12.9 56 +25 +25 комфорт 1005.6 1001.7
17 11.06 С 1 20 км н/о +20.8 +13.3 62 +24 +24 комфорт 1006.0 1002.1
18 11.06 С 3 20 км н/о +21.2 +13.6 62 +24 +24 комфорт 1005.9 1002.0
19 11.06 С 3 20 км н/о +21.0 +13.2 61 +24 +24 комфорт 1006.3 1002.4
20 11.06 З 3 20 км н/о +20.3 +13.3 64 +23 +23 комфорт 1006.6 1002.7
21 11.06 С 2 20 км н/о +20.5 +13.2 63 +24 +24 комфорт 1007.0 1003.1
22 11.06 С 3 20 км н/о +21.8 +16.1 70 +26 +26 душно 1007.2 1003.3
23 11.06 СВ 3 20 км н/о +22.7 +14.6 60 +26 +26 жарко 1007.7 1003.8
00 12.06 СВ 3 20 км н/о +23.4 +13.3 53 +27 +27 душно 1007.8 1003.9 +19.9
01 12.06 СВ 3 20 км н/о +24.1 +12.1 47 +26 +26 жарко 1007.8 1003.9
02 12.06 В 2 20 км н/о +24.3 +12.3 47 +26 +26 жарко 1008.0 1004.1
03 12.06 СВ 2 20 км н/о +25.3 +13.5 48 +27 +27 жарко 1008.0 1004.1
04 12.06 ЮВ 2 20 км н/о +25.1 +14.6 52 +28 +28 жарко 1007.9 1004.0
05 12.06 ЮЗ 2 20 км н/о +24.1 +16.4 62 +28 +28 душно 1007.5 1003.6
06 12.06 З 3 20 км н/о +24.5 +16.0 59 +28 +28 душно 1007.3 1003.4
07 12.06 З 3 20 км н/о +24.8 +15.4 56 +28 +28 жарко 1007.3 1003.4
08 12.06 З 4 20 км н/о +24.2 +15.7 59 +27 +27 жарко 1007.3 1003.4
09 12.06 З 3 20 км н/о +23.3 +15.9 63 +28 +28 душно 1007.7 1003.8
10 12.06 СЗ 3 20 км н/о +22.9 +14.7 60 +27 +27 душно 1008.4 1004.5
11 12.06 СЗ 2 20 км н/о +22.5 +14.1 59 +26 +26 жарко 1008.6 1004.7
12 12.06 СЗ 3 20 км н/о +22.1 +13.5 58 +25 +25 комфорт 1009.5 1005.6 +27.3
13 12.06 С 3 20 км н/о +21.5 +15.1 67 +25 +25 комфорт 1009.9 1006.0
14 12.06 С 3 20 км н/о +21.0 +17.2 79 +25 +25 комфорт 1009.9 1006.0
15 12.06 С 3 20 км н/о +20.3 +17.3 83 +24 +24 комфорт 1009.7 1005.8
16 12.06 С 3 20 км н/о +19.6 +17.0 85 +22 +22 комфорт 1009.7 1005.8
17 12.06 С 3 20 км н/о +19.3 +17.1 87 +21 +21 комфорт 1009.4 1005.5
18 12.06 С 3 20 км н/о +19.7 +17.1 85 +22 +22 комфорт 1009.4 1005.5
19 12.06 СВ 4 20 км н/о +20.6 +17.6 83 +24 +24 комфорт 1009.5 1005.6
20 12.06 СВ 5 20 км н/о +20.9 +18.7 87 +25 +25 комфорт 1009.9 1006.0
21 12.06 СВ 4 20 км н/о +21.3 +19.1 87 +26 +26 душно 1010.7 1006.8
22 12.06 СВ 3 20 км н/о +22.4 +19.2 82 +28 +28 душно 1011.1 1007.2
23 12.06 СВ 3 20 км н/о +22.8 +18.8 78 +29 +29 очень
душно
1011.7 1007.8
00 13.06 СВ 4 20 км н/о +22.8 +18.1 75 +28 +28 душно 1012.0 1008.1 +19.3
01 13.06 В 4 20 км н/о +23.9 +17.6 68 +28 +28 душно 1011.9 1008.0
02 13.06 В 4 20 км н/о +24.1 +18.1 69 +28 +28 душно 1011.8 1007.9
03 13.06 В 4 20 км н/о +24.1 +18.7 72 +29 +29 душно 1011.7 1007.8
04 13.06 В 5 20 км н/о +24.4 +19.3 73 +29 +29 душно 1011.4 1007.5
05 13.06 В 4 20 км н/о +24.6 +19.5 73 +30 +30 очень
душно
1011.7 1007.8
06 13.06 В 3 20 км н/о +24.4 +20.7 80 +30 +30 очень
душно
1010.8 1006.9
07 13.06 В 3 20 км н/о +23.9 +20.3 80 +30 +30 очень
душно
1010.7 1006.8
08 13.06 В 3 20 км н/о +23.5 +20.1 81 +29 +29 душно 1010.7 1006.8
09 13.06 В 4 20 км н/о +23.1 +19.9 82 +30 +30 очень
душно
1010.8 1006.9
10 13.06 В 3 20 км н/о +22.6 +19.6 83 +29 +29 очень
душно
1011.0 1007.1
11 13.06 В 3 20 км н/о +22.6 +19.6 83 +29 +29 очень
душно
1011.4 1007.5
12 13.06 В 3 20 км н/о +22.5 +19.5 83 +29 +29 очень
душно
1011.5 1007.6 +25.5
13 13.06 В 2 20 км н/о +22.5 +20.1 86 +29 +29 очень
душно
1011.9 1008.0
14 13.06 СВ 2 20 км н/о +22.4 +20.0 86 +29 +29 очень
душно
1011.6 1007.7
15 13.06 СВ 2 16 км н/о +22.6 +20.5 88 +29 +29 очень
душно
1010.9 1007.0
16 13.06 В 3 15 км н/о +22.7 +20.4 87 +29 +29 очень
душно
1010.3 1006.4
17 13.06 В 3 16 км н/о +22.7 +20.2 86 +29 +29 очень
душно
1009.8 1005.9
18 13.06 СВ 2 15 км н/о +22.7 +20.4 87 +29 +29 очень
душно
1009.1 1005.2
19 13.06 СВ 2 13 км н/о +22.6 +20.7 89 +29 +29 очень
душно
1008.9 1005.0
20 13.06 В 2 11 км н/о +22.8 +20.7 88 +30 +30 очень
душно
1008.4 1004.5
21 13.06 В 3 11 км н/о +23.0 +21.5 91 +31 +31 очень
душно
1008.1 1004.2
22 13.06 СВ 2 12 км в посл. час дождь н/о +22.4 +20.3 88 +29 +29 очень
душно
1007.9 1004.0
23 13.06 СВ 3 10 км слаб. дождь н/о +22.7 +21.2 91 +30 +30 очень
душно
1007.7 1003.8
00 14.06 В 3 11 км слаб. дождь н/о +21.9 +20.5 92 +28 +28 душно 1007.3 1003.4 +21.9 0.0
02 14.06 Ю 5 5000 м слаб. дождь н/о +21.8 +21.1 96 +28 +28 душно 1007.4 1003.5
03 14.06 В 3 5000 м слаб. дождь н/о +20.8 +20.3 97 +26 +26 душно 1007.0 1003.1
04 14.06 В 3 2000 м сильн. дождь н/о +20.9 +20.6 98 +26 +26 душно 1006.3 1002.4
05 14.06 В 2 4600 м слаб. дождь н/о +21.1 +20.8 98 +26 +26 душно 1005.8 1001.9
06 14.06 В 4 4300 м дождь н/о +20.7 +20.4 98 +26 +26 душно 1004.7 1000.8 44
07 14.06 В 6 3700 м дождь н/о +21.5 +21.3 99 +27 +27 душно 1004.2 1000.3
08 14.06 В 5 4300 м дождь н/о +20.8 +20.6 99 +26 +26 душно 1003.5 999.6
09 14.06 В 8 2600 м дождь н/о +21.1 +20.8 98 +26 +26 душно 1003.2 999.3
10 14.06 В 7 2200 м сильн. дождь н/о +21.0 +20.7 98 +26 +26 душно 1003.0 999.1
11 14.06 В 9 1600 м сильн. дождь н/о +20.8 +20.6 99 +25 +25 комфорт 1001.8 997.9
12 14.06 В 6 3300 м дождь н/о +20.7 +20.4 98 +25 +25 комфорт 1001.6 997.7 +22.8 102
13 14.06 В 10 9000 м слаб. дождь н/о +20.8 +18.6 87 +24 +24 комфорт 1000.7 996.8
14 14.06 В 9 5000 м слаб. дождь н/о +20.7 +19.7 94 +25 +25 комфорт 1000.1 996.2
15 14.06 В 8 3700 м слаб. дождь н/о +20.4 +19.8 96 +24 +24 комфорт 998.9 995.0
16 14.06 В 8 2900 м дождь н/о +20.2 +19.9 98 +24 +24 комфорт 998.3 994.4
17 14.06 В 5 2700 м слаб. дождь н/о +20.0 +19.9 99 +23 +23 комфорт 997.4 993.5
18 14.06 В 6 3100 м дождь н/о +20.0 +19.9 99 +23 +23 комфорт 995.9 992.0 15
19 14.06 З 4 3500 м слаб. дождь н/о +19.4 +19.1 98 +22 +22 комфорт 995.0 991.1
20 14.06 В 4 4300 м слаб. дождь н/о +19.7 +19.2 97 +23 +23 комфорт 993.6 989.7
21 14.06 СВ 8 4300 м дождь н/о +19.4 +19.1 98 +21 +21 комфорт 992.7 988.8
22 14.06 СВ 7 5000 м слаб. дождь н/о +19.7 +19.2 97 +22 +22 комфорт 991.6 987.7
23 14.06 С 5 2700 м дождь н/о +20.1 +19.6 97 +24 +24 комфорт 991.3 987.4
00 15.06 СВ 8 4300 м дождь н/о +19.7 +19.2 97 +22 +22 комфорт 989.3 985.4 +19.3 40
01 15.06 С 8 1300 м сильн. дождь н/о +19.8 +19.0 95 +22 +22 комфорт 989.4 985.5
02 15.06 СЗ 6 20 км в посл. час дождь н/о +22.0 +19.0 83 +27 +27 душно 989.3 985.5
03 15.06 СЗ 5 20 км {дождь} н/о +25.8 +18.2 63 +30 +30 душно 988.8 985.0
04 15.06 З 11 16 км н/о +22.3 +18.9 81 +28 +28 душно 990.4 986.6
05 15.06 З 10 20 км н/о +21.9 +18.5 81 +27 +27 душно 990.3 986.5
06 15.06 З 7 20 км {дождь} н/о +21.3 +18.1 82 +26 +26 душно 990.2 986.4 19
07 15.06 З 4 20 км н/о +21.3 +17.9 81 +25 +25 комфорт 990.9 987.1
08 15.06 З 5 20 км в посл. час дождь н/о +21.0 +18.0 83 +25 +25 комфорт 991.9 988.0
09 15.06 З 5 20 км {дождь} н/о +21.1 +17.7 81 +25 +25 комфорт 993.0 989.1
10 15.06 З 3 20 км в посл. час дождь н/о +21.3 +17.3 78 +25 +25 комфорт 994.4 990.5
11 15.06 З 3 20 км н/о +21.3 +17.5 79 +25 +25 комфорт 995.7 991.8
12 15.06 З 5 20 км {дождь} н/о +21.1 +16.7 76 +25 +25 комфорт 996.9 993.0 +26.6 19
13 15.06 З 4 20 км н/о +21.1 +16.5 75 +25 +25 комфорт 997.6 993.7
14 15.06 З 5 20 км н/о +21.3 +16.3 73 +25 +25 комфорт 998.4 994.5
15 15.06 З 4 20 км н/о +21.2 +16.2 73 +25 +25 комфорт 999.0 995.1
16 15.06 З 5 20 км н/о +20.9 +16.1 74 +24 +24 комфорт 999.4 995.5
17 15.06 З 6 20 км н/о +20.9 +16.1 74 +24 +24 комфорт 999.6 995.7
18 15.06 З 4 20 км н/о +20.8 +15.8 73 +24 +24 комфорт 1000.1 996.2
19 15.06 З 3 20 км н/о +20.9 +15.9 73 +25 +25 комфорт 1000.6 996.7
20 15.06 З 3 20 км н/о +21.1 +15.4 70 +24 +24 комфорт 1001.3 997.4
21 15.06 З 4 20 км н/о +20.9 +15.9 73 +25 +25 комфорт 1001.9 998.0
22 15.06 З 5 20 км н/о +21.3 +16.5 74 +25 +25 комфорт 1002.4 998.5
23 15.06 З 4 20 км н/о +22.3 +16.6 70 +27 +27 душно 1003.2 999.3
00 16.06 З 5 18 км н/о +23.4 +16.5 65 +28 +28 душно 1003.4 999.5 +20.7
01 16.06 З 6 20 км н/о +23.6 +16.7 65 +27 +27 жарко 1003.8 999.9
02 16.06 З 6 20 км н/о +24.4 +16.7 62 +28 +28 душно 1003.8 1000.0
03 16.06 З 6 20 км н/о +25.0 +15.9 57 +28 +28 жарко 1004.2 1000.4
04 16.06 З 5 20 км н/о +25.7 +15.7 54 +29 +29 душно 1004.5 1000.7
05 16.06 З 5 20 км н/о +26.2 +15.3 51 +29 +29 жарко 1004.7 1000.9
06 16.06 З 5 20 км н/о +26.3 +14.8 49 +29 +29 жарко 1005.1 1001.3
07 16.06 З 2 20 км н/о +26.1 +14.6 49 +29 +29 жарко 1005.5 1001.7
08 16.06 СЗ 2 20 км н/о +25.6 +12.8 45 +27 +27 жарко 1005.9 1002.1
09 16.06 СЗ 3 20 км н/о +24.5 +13.7 51 +27 +27 жарко 1006.5 1002.6
10 16.06 СЗ 2 20 км н/о +23.3 +14.3 57 +27 +27 душно 1007.4 1003.5
11 16.06 С 2 20 км н/о +21.3 +15.2 68 +24 +24 комфорт 1008.3 1004.4
12 16.06 СВ 1 20 км н/о +22.0 +14.7 63 +25 +25 комфорт 1009.1 1005.2 +26.6
13 16.06 СЗ 2 20 км н/о +22.2 +14.1 60 +25 +25 комфорт 1009.6 1005.7
14 16.06 СЗ 4 20 км н/о +22.0 +13.9 60 +25 +25 комфорт 1009.8 1005.9
15 16.06 ЮЗ 2 20 км н/о +21.4 +14.3 64 +24 +24 комфорт 1010.1 1006.2
16 16.06 С 3 20 км н/о +19.0 +14.3 74 +21 +21 комфорт 1010.2 1006.2
17 16.06 С 3 20 км н/о +18.6 +14.1 75 +20 +20 1009.9 1005.9
18 16.06 СЗ 1 20 км н/о +18.6 +13.9 74 +20 +20 1010.4 1006.4
19 16.06 С 1 20 км н/о +18.6 +13.5 72 +20 +20 1011.0 1007.0
20 16.06 ЮЗ 1 20 км н/о +20.1 +14.5 70 +24 +24 комфорт 1011.4 1007.5
21 16.06 С 3 20 км н/о +20.8 +12.5 59 +24 +24 комфорт 1011.6 1007.7
22 16.06 С 2 20 км н/о +21.2 +13.1 60 +24 +24 комфорт 1012.4 1008.5
23 16.06 СВ 2 20 км н/о +22.6 +13.9 58 +26 +26 жарко 1012.7 1008.8
00 17.06 СВ 2 20 км н/о +23.2 +15.5 62 +27 +27 душно 1013.5 1009.6 +17.8
01 17.06 В 2 20 км н/о +23.2 +16.3 65 +28 +28 душно 1013.7 1009.8
02 17.06 В 2 20 км н/о +24.5 +17.0 63 +28 +28 душно 1013.7 1009.8
03 17.06 Ю 1 20 км н/о +23.7 +17.2 67 +28 +28 душно 1013.4 1009.5
04 17.06 ЮЗ 2 20 км н/о +24.5 +17.0 63 +28 +28 душно 1013.0 1009.1
05 17.06 З 3 20 км н/о +24.5 +16.5 61 +28 +28 душно 1012.6 1008.7
06 17.06 З 4 20 км н/о +24.4 +16.9 63 +28 +28 душно 1012.4 1008.5
07 17.06 З 4 20 км н/о +24.5 +17.3 64 +28 +28 душно 1011.9 1008.0
08 17.06 З 5 20 км н/о +24.3 +16.6 62 +28 +28 душно 1011.7 1007.8
09 17.06 З 5 20 км н/о +23.3 +17.1 68 +28 +28 душно 1011.8 1007.9
10 17.06 З 3 20 км н/о +22.9 +17.2 70 +28 +28 душно 1012.2 1008.3
11 17.06 СЗ 4 20 км н/о +22.5 +16.8 70 +27 +27 душно 1012.4 1008.5
12 17.06 СЗ 4 20 км н/о +23.1 +13.9 56 +27 +27 душно 1013.3 1009.4 +25.5
13 17.06 СЗ 3 20 км н/о +23.0 +13.8 56 +26 +26 жарко 1013.8 1009.9
14 17.06 С 3 20 км н/о +21.5 +16.7 74 +25 +25 комфорт 1014.1 1010.2
15 17.06 С 3 20 км н/о +21.2 +17.2 78 +25 +25 комфорт 1013.8 1009.9
16 17.06 С 2 20 км н/о +21.9 +18.1 79 +27 +27 душно 1013.5 1009.6
18 17.06 С 3 20 км н/о +20.8 +18.4 86 +25 +25 комфорт 1012.8 1008.9
19 17.06 С 3 20 км н/о +20.9 +18.7 87 +26 +26 душно 1012.7 1008.8
20 17.06 С 3 20 км н/о +20.4 +18.0 86 +24 +24 комфорт 1013.1 1009.2

 

Местоположение метеостанции Симидзу (Япония): широта 32.72 долгота 133.01 высота над уровнем моря 33 м.

В архиве по умолчанию представлена погода в Симидзу за последнюю неделю. Архивные данные за месяц целиком и за предыдущие месяцы, начиная с января 2011 года, Вы можете получить, выбрав интересующий диапазон дат из раскрывающегося списка и нажав кнопку "Ввод!".


*Определитесь, кто Вы:
робот инопланетянин человек

Внимание! Время в таблицах - всемирное. Для получения местного времени необходимо прибавить поправку, которая равна 9 ч.

Смотрите также архив погоды в соседних городах и на ближайших метеорологических станциях:

Погода в Сукумо (Япония) (37 км)
Погода в Увадзиме (Япония) (71 км)
Погода в Коти (Япония) (107 км)
Погода в Муротомисаки (Япония) (124 км)
Погода в Мацуяме (Япония) (127 км)
Погода в Нобеоке (Япония) (128 км)
Погода в Оите (Япония) (142 км)
Погода в Куре (Япония) (173 км)
Погода в Миядзаки (Япония) (174 км)
Погода на Асо (Япония) (183 км)

Пояснения к столбцам:

Ветер - указаны скорость ветра в м/с - средняя за 10 мин, порывы в срок и между сроками (в фигурных скобках) и направление, откуда дует ветер: С - северный, СВ - северо-восточный, В - восточный, ЮВ - юго-восточный, Ю - южный, ЮЗ - юго-западный, З - западный, СЗ - северо-западный.
Видимость - горизонтальная дальность видимости в метрах или километрах. При видимости от 1 до 10 км при отсутствии осадков обычно наблюдается дымка, при ухудшении видимости до 1 км и менее - туман. В сухую погоду видимость может ухудшаться дымом, пылью или мглою.
Явления - указаны атмосферные явления, наблюдавшиеся в срок или в последний час перед сроком; фигурными скобками обозначены явления, наблюдавшиеся между сроками (за 1-3 часа до срока); квадратными скобками обозначены град или гололедные отложения с указанием их диаметра в мм.
Облачность - указаны через наклонную черту общая и нижняя облачность в баллах и высота нижней границы облаков в метрах; квадратными скобками обозначены формы облаков: Ci - перистые, Cs - перисто-слоистые, Cc - перисто-кучевые, Ac - высококучевые, As - высокослоистые, Sc - слоисто-кучевые, Ns - слоисто-дождевые, Cu - кучевые, Cb - кучево-дождевые. Подробнее классификацию облаков см. в Атласе облаков (PDF).
T - Температура воздуха - температура, измеренная на высоте 2 м над землей.
Td - Температура точки росы - температура, при понижении до которой содержащийся в воздухе водяной пар достигнет насыщения.
f - Относительная влажность воздуха - влажноcть воздуха, измеренная на высоте 2 м над землей.
Te - Эффективная температура - температура, которую ощущает одетый по сезону человек в тени. Характеристика душности погоды. При расчете учитывается влияние влажности воздуха и скорости ветра на теплоощущения человека.
Tes - Эффективная температура на солнце - температура, которую ощущает человек, с поправкой на солнечный нагрев. Характеристика знойности погоды. Зависит от высоты солнца над горизонтом, облачности и скорости ветра. Ночью, в пасмурную погоду, а также при ветре 12 м/с и более поправка равна нулю.
P - Атмосферное давление - приведенное к уровню моря атмосферное давление.
Po - Атмосферное давление - измеренное на уровне метеостанции атмосферное давление.
Tmin - Минимальная температура - минимум температуры воздуха на высоте 2 м над землей.
Tmax - Максимальная температура - максимум температуры воздуха на высоте 2 м над землей.
R - Количество осадков - Количество выпавших осадков за период времени, мм. При наведении курсора мыши на число - период времени, за который выпало указанное количество осадков.
R24 - Количество осадков - Количество выпавших осадков за 24 часа, мм.
S - Снежный покров - Высота снежного покрова, см. При наведении курсора мыши на число - состояние снежного покрова и степень покрытия местности в баллах.